Location: Palomar Mountain Lodge
(33.3110°N, 116.8495°W)
Time: 08:15:08
(UTC-07:00)

Cosmos 841 Rocket - Pass Details

Date: 12 July 2018
Orbit: 747 x 772 km, 74.0° (Epoch: 23 September)

Event Time Altitude Azimuth Distance (km) Brightness Sun altitude
Rises 22:53:31 0° 342° (NNW) 3,199 7.9 -27.9°
Reaches altitude 10° 22:55:53 10° 343° (NNW) 2,269 6.8 -28.2°
Enters shadow 23:00:22 68° 338° (NNW) 801 3.6 -28.7°
